Location: Olsztyn
(53.7767°N, 20.4765°E)
Time: 13:15:33
(UTC+01:00)

N. Korean satellite - Visible Passes

Search period start: 06 December 2021 00:00
Search period end: 16 December 2021 00:00
Orbit: 446 x 495 km, 97.3° (Epoch: 06 December)

Date Brightness Start Highest point End Pass type
(mag) Time Alt. Az. Time Alt. Az. Time Alt. Az.
06 Dec 7.1 04:51:39 10° NNE 04:55:00 54° E 04:58:19 10° S visible
06 Dec 8.0 06:25:43 10° NNW 06:27:51 16° WNW 06:29:58 10° W visible
06 Dec 9.7 17:06:28 10° SW 17:08:33 15° W 17:10:38 10° NW visible
07 Dec 8.6 04:23:24 10° NE 04:26:20 26° E 04:29:14 10° SSE visible
07 Dec 7.3 05:56:34 10° N 05:59:31 28° WNW 06:02:28 10° SW visible
07 Dec 8.8 16:36:44 10° SSW 16:39:47 28° W 16:42:50 10° NW visible
08 Dec 9.6 03:55:43 10° ENE 03:57:33 14° E 03:59:22 10° ESE visible
08 Dec 6.4 05:27:44 10° N 05:31:05 56° WNW 05:34:24 10° SSW visible
08 Dec 7.2 16:07:41 10° S 16:11:07 57° WSW 16:14:33 10° NNW visible
09 Dec 6.7 04:59:09 10° NNE 05:02:33 67° ESE 05:05:55 10° S visible
09 Dec 8.2 06:33:32 10° NNW 06:35:18 14° WNW 06:37:04 10° W visible
09 Dec 9.8 17:14:37 10° WSW 17:16:10 12° W 17:17:43 10° WNW visible
10 Dec 8.3 04:30:49 10° NNE 04:35:30 21° SE 04:36:57 10° SSE visible
10 Dec 7.5 06:04:12 10° N 06:06:59 24° WNW 06:09:46 10° WSW visible
10 Dec 9.1 16:44:30 10° SSW 16:47:21 23° W 16:50:11 10° NW visible
11 Dec 9.6 04:02:52 10° NE 04:07:29 - SE 04:03:38 13° ENE visible
11 Dec 7.1 05:35:17 10° N 05:41:35 12° SW 05:41:49 10° SW visible
11 Dec 7.7 16:15:17 10° S 16:18:38 46° W 16:21:58 10° NNW visible
12 Dec 7.9 05:06:36 10° NNE 05:13:15 11° SSW 05:13:25 10° SSW visible
12 Dec 8.4 06:41:24 10° NW 06:42:21 12° NW 06:42:21 12° NW visible
12 Dec 10.1 17:23:11 10° W 17:23:42 10° W 17:24:14 10° WNW visible
13 Dec 8.9 04:38:09 10° NNE 04:44:48 - S 04:39:02 16° NE visible
13 Dec 8.1 06:11:46 10° NNW 06:18:54 - SW 06:13:06 17° NNW visible
13 Dec 9.4 16:52:15 10° SW 16:54:50 20° W 16:57:25 10° NW visible
14 Dec9.704:16:17SSE04:16:17SSE04:09:51NEvisible
14 Dec 8.2 05:42:45 10° N 05:50:23 - SW 05:43:54 19° N visible
14 Dec 8.1 16:22:49 10° SSW 16:26:04 38° W 16:29:18 10° NNW visible
15 Dec10.303:47:41SE03:47:41SE03:40:42NEvisible
15 Dec 8.7 05:13:59 10° NNE 05:21:47 - SSW 05:14:45 16° NNE visible
